| time (UTC) | temp C | wind direction | speed KPH | gust KPH | rain 1hr cm | rain 24hr cm | rain mn cm | humidity % | barometer mb |
| 20260504191952 | 19 | 138 | 4.8 | 16.1 | 0.00 | 0.00 | 0.00 | 45 | 1010.6 |
| 20260504191830 | 19 | 138 | 4.8 | 16.1 | 0.00 | 0.00 | 0.00 | 45 | 1010.6 |
| 20260504190404 | 19 | 143 | 6.4 | 16.1 | 0.00 | 0.00 | 0.00 | 45 | 1010.6 |
| 20260504184950 | 19 | 139 | 4.8 | 17.7 | 0.00 | 0.00 | 0.00 | 48 | 1010.8 |
| 20260504184837 | 19 | 139 | 4.8 | 17.7 | 0.00 | 0.00 | 0.00 | 48 | 1010.8 |
| 20260504183425 | 20 | 136 | 4.8 | 19.3 | 0.00 | 0.00 | 0.00 | 45 | 1010.8 |
| 20260504181943 | 20 | 142 | 6.4 | 19.3 | 0.00 | 0.00 | 0.00 | 42 | 1010.8 |
| 20260504181837 | 20 | 142 | 6.4 | 19.3 | 0.00 | 0.00 | 0.00 | 42 | 1010.8 |
| 20260504180453 | 20 | 141 | 3.2 | 14.5 | 0.00 | 0.00 | 0.00 | 46 | 1011.0 |
| 20260504180323 | 20 | 141 | 3.2 | 14.5 | 0.00 | 0.00 | 0.00 | 46 | 1011.0 |
| 20260504174858 | 19 | 143 | 6.4 | 17.7 | 0.00 | 0.00 | 0.00 | 42 | 1011.1 |
| 20260504173531 | 18 | 143 | 4.8 | 22.5 | 0.00 | 0.00 | 0.00 | 42 | 1011.3 |
| 20260504173416 | 18 | 143 | 4.8 | 22.5 | 0.00 | 0.00 | 0.00 | 42 | 1011.3 |
| 20260504171913 | 18 | 139 | 6.4 | 12.9 | 0.00 | 0.00 | 0.00 | 43 | 1011.5 |
| 20260504170437 | 18 | 136 | 8.0 | 24.1 | 0.00 | 0.00 | 0.00 | 43 | 1011.7 |
| 20260504160350 | 18 | 136 | 4.8 | 14.5 | 0.00 | 0.00 | 0.00 | 43 | 1012.3 |
| 20260504150448 | 17 | 138 | 4.8 | 12.9 | 0.00 | 0.00 | 0.00 | 43 | 1013.0 |
| 20260504140517 | 16 | 137 | 3.2 | 12.9 | 0.00 | 0.00 | 0.00 | 47 | 1013.2 |
| 20260504140410 | 16 | 137 | 3.2 | 12.9 | 0.00 | 0.00 | 0.00 | 47 | 1013.2 |
| 20260504130418 | 13 | 132 | 4.8 | 14.5 | 0.00 | 0.00 | 0.00 | 54 | 1013.8 |
| 20260504110438 | 8 | 132 | 0.0 | 4.8 | 0.00 | 0.00 | 0.00 | 62 | 1014.1 |
| 20260504100437 | 7 | 132 | 0.0 | 1.6 | 0.00 | 0.00 | 0.00 | 63 | 1013.9 |
| 20260504081919 | 8 | 0 | 0.0 | 4.8 | 0.00 | 0.00 | 0.00 | 59 | 1013.3 |
| 20260504080534 | 8 | 0 | 0.0 | 1.6 | 0.00 | 0.00 | 0.00 | 60 | 1013.2 |
| 20260504080403 | 8 | 0 | 0.0 | 1.6 | 0.00 | 0.00 | 0.00 | 60 | 1013.2 |
| 20260504070330 | 8 | 0 | 0.0 | 1.6 | 0.00 | 0.00 | 0.00 | 58 | 1012.8 |
| 20260504050457 | 7 | 0 | 0.0 | 1.6 | 0.00 | 0.00 | 0.00 | 60 | 1012.6 |
| 20260504050323 | 7 | 0 | 0.0 | 1.6 | 0.00 | 0.00 | 0.00 | 60 | 1012.6 |
| 20260504045021 | 7 | 0 | 0.0 | 0.0 | 0.00 | 0.00 | 0.00 | 59 | 1012.7 |
| 20260504044837 | 7 | 0 | 0.0 | 0.0 | 0.00 | 0.00 | 0.00 | 59 | 1012.7 |
| 20260504043534 | 7 | 132 | 0.0 | 0.0 | 0.00 | 0.00 | 0.00 | 59 | 1012.5 |
| 20260504043345 | 7 | 132 | 0.0 | 0.0 | 0.00 | 0.00 | 0.00 | 59 | 1012.5 |
| 20260504041900 | 7 | 0 | 0.0 | 0.0 | 0.00 | 0.00 | 0.00 | 58 | 1012.4 |
| 20260504040433 | 7 | 132 | 0.0 | 1.6 | 0.00 | 0.00 | 0.00 | 59 | 1012.4 |
| 20260504040323 | 7 | 132 | 0.0 | 1.6 | 0.00 | 0.00 | 0.00 | 59 | 1012.4 |
| 20260504034925 | 6 | 0 | 0.0 | 0.0 | 0.00 | 0.00 | 0.00 | 60 | 1012.3 |
| 20260504033441 | 7 | 0 | 0.0 | 1.6 | 0.00 | 0.00 | 0.00 | 62 | 1012.2 |
| 20260504032017 | 7 | 0 | 0.0 | 0.0 | 0.00 | 0.00 | 0.00 | 60 | 1012.3 |
| 20260504031853 | 7 | 0 | 0.0 | 0.0 | 0.00 | 0.00 | 0.00 | 60 | 1012.3 |
| 20260504030436 | 7 | 0 | 0.0 | 1.6 | 0.00 | 0.00 | 0.00 | 60 | 1012.3 |
| 20260504025032 | 7 | 0 | 0.0 | 0.0 | 0.00 | 0.00 | 0.00 | 59 | 1012.2 |
| 20260504024837 | 7 | 0 | 0.0 | 0.0 | 0.00 | 0.00 | 0.00 | 59 | 1012.2 |
| 20260504023444 | 7 | 0 | 0.0 | 0.0 | 0.00 | 0.00 | 0.00 | 58 | 1012.4 |
| 20260504022013 | 7 | 0 | 0.0 | 0.0 | 0.00 | 0.00 | 0.00 | 56 | 1012.4 |
| 20260504021849 | 7 | 0 | 0.0 | 0.0 | 0.00 | 0.00 | 0.00 | 56 | 1012.4 |
| 20260504020520 | 7 | 0 | 0.0 | 0.0 | 0.00 | 0.00 | 0.00 | 57 | 1012.2 |
| 20260504020355 | 7 | 0 | 0.0 | 0.0 | 0.00 | 0.00 | 0.00 | 57 | 1012.2 |
| 20260504015024 | 7 | 0 | 0.0 | 0.0 | 0.00 | 0.00 | 0.00 | 57 | 1012.1 |
| 20260504014845 | 7 | 0 | 0.0 | 0.0 | 0.00 | 0.00 | 0.00 | 57 | 1012.1 |
| 20260504013505 | 8 | 0 | 0.0 | 0.0 | 0.00 | 0.00 | 0.00 | 56 | 1012.0 |
| 20260504012004 | 9 | 0 | 0.0 | 0.0 | 0.00 | 0.00 | 0.00 | 53 | 1011.8 |
| 20260504011849 | 9 | 0 | 0.0 | 0.0 | 0.00 | 0.00 | 0.00 | 53 | 1011.8 |
| 20260504010447 | 9 | 0 | 0.0 | 0.0 | 0.00 | 0.00 | 0.00 | 47 | 1011.7 |
| 20260504010316 | 9 | 0 | 0.0 | 0.0 | 0.00 | 0.00 | 0.00 | 47 | 1011.7 |
| 20260504004905 | 10 | 0 | 0.0 | 0.0 | 0.00 | 0.00 | 0.00 | 44 | 1011.5 |
| 20260504003442 | 11 | 0 | 0.0 | 0.0 | 0.00 | 0.00 | 0.00 | 42 | 1011.1 |
| 20260504003339 | 11 | 0 | 0.0 | 0.0 | 0.00 | 0.00 | 0.00 | 42 | 1011.1 |
| 20260504001932 | 11 | 0 | 0.0 | 1.6 | 0.00 | 0.00 | 0.00 | 39 | 1010.8 |
| 20260504000542 | 12 | 0 | 0.0 | 1.6 | 0.00 | 0.00 | 0.00 | 36 | 1010.6 |
| 20260504000416 | 12 | 0 | 0.0 | 1.6 | 0.00 | 0.00 | 0.00 | 36 | 1010.6 |
| 20260503234921 | 12 | 132 | 0.0 | 3.2 | 0.00 | 0.00 | 0.00 | 35 | 1010.4 |
| 20260503233521 | 12 | 132 | 1.6 | 4.8 | 0.00 | 0.00 | 0.00 | 34 | 1010.3 |
| 20260503233357 | 12 | 132 | 1.6 | 4.8 | 0.00 | 0.00 | 0.00 | 34 | 1010.3 |
| 20260503232014 | 13 | 0 | 0.0 | 4.8 | 0.00 | 0.00 | 0.00 | 33 | 1010.3 |
| 20260503231843 | 13 | 0 | 0.0 | 4.8 | 0.00 | 0.00 | 0.00 | 33 | 1010.3 |
| 20260503230420 | 13 | 132 | 3.2 | 17.7 | 0.00 | 0.00 | 0.00 | 31 | 1010.2 |
| 20260503224940 | 13 | 132 | 1.6 | 8.0 | 0.00 | 0.00 | 0.00 | 32 | 1010.1 |
| 20260503223357 | 13 | 132 | 3.2 | 9.7 | 0.00 | 0.00 | 0.00 | 30 | 1010.1 |
| 20260503222017 | 13 | 131 | 4.8 | 12.9 | 0.00 | 0.00 | 0.00 | 30 | 1010.0 |
| 20260503221909 | 13 | 131 | 4.8 | 12.9 | 0.00 | 0.00 | 0.00 | 30 | 1010.0 |
| 20260503220415 | 13 | 131 | 3.2 | 11.3 | 0.00 | 0.00 | 0.00 | 31 | 1010.0 |
| 20260503215013 | 13 | 131 | 4.8 | 17.7 | 0.00 | 0.00 | 0.00 | 29 | 1010.1 |
| 20260503214855 | 13 | 131 | 4.8 | 17.7 | 0.00 | 0.00 | 0.00 | 29 | 1010.1 |
| 20260503213440 | 13 | 131 | 3.2 | 14.5 | 0.00 | 0.00 | 0.00 | 31 | 1009.8 |
| 20260503211955 | 14 | 131 | 3.2 | 14.5 | 0.00 | 0.00 | 0.00 | 32 | 1009.7 |
| 20260503210501 | 13 | 131 | 3.2 | 11.3 | 0.00 | 0.00 | 0.00 | 31 | 1009.6 |
| 20260503205031 | 13 | 131 | 4.8 | 11.3 | 0.00 | 0.00 | 0.00 | 33 | 1009.8 |
| 20260503204836 | 13 | 131 | 4.8 | 11.3 | 0.00 | 0.00 | 0.00 | 33 | 1009.8 |
| 20260503203534 | 13 | 131 | 4.8 | 22.5 | 0.00 | 0.00 | 0.00 | 34 | 1009.9 |
| 20260503203413 | 13 | 131 | 4.8 | 22.5 | 0.00 | 0.00 | 0.00 | 34 | 1009.9 |
| 20260503201921 | 13 | 129 | 4.8 | 17.7 | 0.00 | 0.00 | 0.00 | 34 | 1009.9 |
| 20260503200432 | 13 | 129 | 3.2 | 14.5 | 0.00 | 0.00 | 0.00 | 36 | 1009.9 |
| 20260503195001 | 13 | 129 | 4.8 | 19.3 | 0.00 | 0.00 | 0.00 | 39 | 1010.0 |
| 20260503194835 | 13 | 129 | 4.8 | 19.3 | 0.00 | 0.00 | 0.00 | 39 | 1010.0 |
| 20260503193525 | 13 | 129 | 6.4 | 11.3 | 0.00 | 0.00 | 0.00 | 38 | 1010.1 |
| 20260503193339 | 13 | 129 | 6.4 | 11.3 | 0.00 | 0.00 | 0.00 | 38 | 1010.1 |